Wellsville, NY

7:55 AM EST on January 22, 2018 (GMT -0500)
Wellsville Municipal-Tarantine

Weather History for KELZ - March, 2013

Change the Weather History Date:

Sunday, March 10, 2013

  Actual Average (KDSV) Record (KDSV)
Temperature  
Mean Temperature 47 °F -  
Max Temperature 57 °F 42 °F 70 °F (1977)
Min Temperature 37 °F 23 °F -3 °F (1984)
Degree Days  
Heating Degree Days 18    
Moisture  
Dew Point 20 °F    
Average Humidity 32    
Maximum Humidity 48    
Minimum Humidity 24    
Precipitation  
Precipitation 0.00 in - - ()
Sea Level Pressure  
Sea Level Pressure 30.14 in    
Wind  
Wind Speed 10 mph (South)    
Max Wind Speed 16 mph    
Max Gust Speed 25 mph    
Visibility 10 miles    
Events      
Averages and records for this station are not official NWS values.
T = Trace of Precipitation, MM = Missing Value Source: NWS Daily Summary

Daily Weather History Graph

Daily Weather History Graph

Search for Another Location

Airport or City:

Trip Planner

Search our weather history database for the weather conditions in past years. The results will help you decide how hot, cold, wet, or windy it might be!

Date:

Astronomy

Mar. 10, 2013 Rise Set
Actual Time 7:31 AM EDT 7:12 PM EDT
Civil Twilight 7:04 AM EDT 7:40 PM EDT
Nautical Twilight 6:31 AM EDT 8:13 PM EDT
Astronomical Twilight 5:59 AM EDT 8:46 PM EDT
Moon 6:31 AM EDT (3/10) 6:18 PM EDT (3/10)
Length of Visible Light 12h 36m
Length of Day
11h 41m
Waning Crescent, 2% of the Moon is Illuminated
Mar 10
Waning Crescent
Mar 11
New
Mar 19
First Quarter
Mar 27
Full
Apr 3
Last Quarter

Hourly Weather History & Observations

Time (EDT) Temp. Windchill Dew Point Humidity Pressure Visibility Wind Dir Wind Speed Gust Speed Precip Events Conditions
12:56 AM 37.9 °F 32.1 °F 19.9 °F 48% 30.24 in 10.0 mi SSE 8.1 mph - N/A   Clear
1:56 AM 41.0 °F 35.2 °F 19.0 °F 41% 30.23 in 10.0 mi SSE 9.2 mph - N/A   Clear
3:56 AM 41.0 °F 35.8 °F 18.0 °F 40% 30.20 in 10.0 mi South 8.1 mph - N/A   Clear
4:56 AM 43.0 °F 37.2 °F 16.0 °F 34% 30.20 in 10.0 mi South 10.4 mph - N/A   Clear
5:56 AM 44.1 °F 37.4 °F 16.0 °F 32% 30.18 in 10.0 mi South 13.8 mph 19.6 mph N/A   Overcast
6:56 AM 45.0 °F 39.7 °F 15.1 °F 30% 30.18 in 10.0 mi South 10.4 mph - N/A   Mostly Cloudy
8:56 AM 44.1 °F 36.8 °F 16.0 °F 32% 30.19 in 10.0 mi South 16.1 mph 25.3 mph N/A   Mostly Cloudy
9:56 AM 46.9 °F - 16.0 °F 29% 30.18 in 10.0 mi South 11.5 mph 25.3 mph N/A   Scattered Clouds
10:56 AM 48.9 °F - 17.1 °F 28% 30.19 in 10.0 mi South 10.4 mph 19.6 mph N/A   Clear
11:56 AM 50.0 °F - 18.0 °F 28% 30.17 in 10.0 mi SSW 11.5 mph 21.9 mph N/A   Clear
12:56 PM 52.0 °F - 19.0 °F 27% 30.15 in 10.0 mi SSW 8.1 mph 18.4 mph N/A   Mostly Cloudy
1:56 PM 53.1 °F - 19.9 °F 27% 30.15 in 10.0 mi South 6.9 mph - N/A   Mostly Cloudy
2:56 PM 55.9 °F - 21.9 °F 27% 30.11 in 10.0 mi SSE 12.7 mph 20.7 mph N/A   Clear
3:56 PM 55.9 °F - 21.9 °F 27% 30.09 in 10.0 mi South 13.8 mph 21.9 mph N/A   Clear
4:56 PM 57.9 °F - 21.0 °F 24% 30.09 in 10.0 mi South 10.4 mph 18.4 mph N/A   Clear
5:56 PM 55.9 °F - 21.9 °F 27% 30.07 in 10.0 mi South 13.8 mph - N/A   Clear
6:56 PM 54.0 °F - 23.0 °F 30% 30.07 in 10.0 mi South 15.0 mph 23.0 mph N/A   Clear
7:56 PM 52.0 °F - 23.0 °F 32% 30.09 in 10.0 mi SSE 6.9 mph - N/A   Clear
8:56 PM 51.1 °F - 23.0 °F 33% 30.10 in 10.0 mi South 9.2 mph 18.4 mph N/A   Clear
9:56 PM 51.1 °F - 23.0 °F 33% 30.11 in 10.0 mi South 12.7 mph 23.0 mph N/A   Clear
10:56 PM 50.0 °F - 23.0 °F 35% 30.09 in 10.0 mi South 13.8 mph 21.9 mph N/A   Clear
11:56 PM 50.0 °F - 21.9 °F 33% 30.07 in 10.0 mi South 10.4 mph 19.6 mph N/A   Clear
12:56 AM 48.9 °F - 21.9 °F 35% 30.06 in 10.0 mi South 11.5 mph 20.7 mph N/A   Clear